Location: Maiden
(35.5760°N, 81.2120°W)
Time: 00:36:58
(UTC-04:00)

A-11 Canister half - Pass Details

Date: 04 August 2020
Orbit: 1527 x 1682 km, 47.3° (Epoch: 25 September)

Event Time Altitude Azimuth Distance (km) Brightness Sun altitude
Rises 16:55:12 0° 275° (W) 4,933 12.5 41.2°
Reaches altitude 10° 16:58:39 10° 282° (WNW) 3,943 12.2 40.5°
Maximum altitude 17:08:12 44° 352° (N) 2,185 10.3 38.6°
Drops below altitude 10° 17:17:35 10° 62° (ENE) 3,871 10.8 36.7°
Sets 17:20:56 0° 69° (ENE) 4,837 11.1 36.0°
